Flag for Israel Weather past 2 weeks in Eilat, Israel

Now
104 °F

Sunny.


Feels Like: 102 °F
Forecast: 78 / 105 °F
Wind: 20 mph from Northeast

Location: Eilat

Current Time: Aug 22, 2014 at 5:59:10 PM

Latest Report: Aug 22, 2014 at 4:50 PM


Visibility: 10 mi

Pressure: 29.68 "Hg

Humidity: 19%

Dew point: 54 °F

Location of EilatLocation

Historic Weather in Eilat — Graph

°F

Eilat temperature yesterday

Maximum temperature yesterday: 106 °F (at 3:50 PM)
Minimum temperature yesterday: 86 °F (at 5:50 AM)
Average temperature yesterday: 97 °F

Past Weeks' High & Low Weather Summary

 TemperatureHumidityPressure
High111 °F (Aug 11, 4:50 PM)58% (Aug 9, 6:50 AM)29.92 "Hg (Aug 9, 6:50 AM)
Low79 °F (Aug 10, 6:50 AM)12% (Aug 13, 4:50 PM)29.53 "Hg (Aug 17, 5:50 PM)
Average96 °F31%29.73 "Hg
* Reported Aug 7 4:50 PM — Aug 22 4:50 PM, Eilat, Weather by CustomWeather, © 2014

Note: Actual official high and low records may vary slightly from our data, if they occured in-between our weather recording intervals... More about our weather records

Advertising

Eilat weather history for previous 24 hours

 ConditionsComfort  
Time TempWeatherWind HumidityBarometerVisibility
4:50 PM
Aug 22
104 °FSunny.20 mph19%29.68 "Hg10 mi
3:50 PM104 °FSunny.22 mph20%29.68 "Hg10 mi
2:50 PM102 °FPassing clouds.21 mph26%29.71 "HgN/A
12:50 PM99 °FSunny.18 mph33%29.74 "Hg10 mi
11:50 AM95 °FSunny.20 mph39%29.77 "Hg10 mi
10:50 AM91 °FSunny.18 mph44%29.80 "Hg10 mi
9:50 AM90 °FSunny.20 mph46%29.80 "Hg10 mi
8:50 AM88 °FSunny.18 mph49%29.83 "Hg10 mi
7:50 AM86 °FSunny.15 mph55%29.80 "Hg10 mi
6:50 AM84 °FClear.15 mph58%29.80 "Hg10 mi
5:50 AM84 °FClear.16 mph58%29.80 "Hg10 mi
9:50 PM
Aug 21
97 °FClear.20 mph28%29.77 "Hg10 mi
8:50 PM100 °FClear.13 mph24%29.74 "Hg10 mi
7:50 PM100 °FSunny.15 mph22%29.71 "Hg10 mi
6:50 PM104 °FSunny.18 mph19%29.71 "Hg10 mi
5:50 PM104 °FSunny.20 mph19%29.71 "Hg10 mi
Weather by CustomWeather, © 2014

See weather overviewHow to use our weather pages